Location: Baumgartsau
(48.4586°N, 14.0864°E)
Time: 11:12:55
(UTC+00:00)

Cosmos 921 Rocket - Pass Details

Date: 09 April 2020
Orbit: 572 x 632 km, 75.8° (Epoch: 23 May)

Event Time Altitude Azimuth Distance (km) Brightness Sun altitude
Rises 18:59:24 0° 339° (NNW) 2,791 7.2 -12.2°
Reaches altitude 10° 19:01:36 10° 338° (NNW) 1,889 6.3 -12.5°
Maximum altitude 19:05:48 80° 252° (WSW) 589 3.0 -13.1°
Enters shadow 19:09:44 12° 166° (SSE) 1,785 5.0 -13.7°
